Regional Weather Roundup
Issued by NWS

Home | Current Version | Previous Version | Text Only | Print | Product List | Glossary Off
Versions: 1 2 3 4 5 6 7 8 9 10 11 12 13 14 15 16 17 18 19 20 21 22 23 24 25 26 27 28 29 30 31 32 33 34 35 36 37 38 39 40 41 42 43 44 45 46 47 48 49 50

000
ASUS43 KMKX 231600
RWRWI

WISCONSIN REGIONAL WEATHER ROUNDUP
NATIONAL WEATHER SERVICE MILWAUKEE/SULLIVAN WI
1100 AM CDT THU OCT 23 2014

NOTE: "FAIR" INDICATES FEW OR NO CLOUDS BELOW 12,000 FEET WITH NO
SIGNIFICANT WEATHER AND/OR OBSTRUCTIONS TO VISIBILITY.

WIZ001-002-006>008-014>016-023>028-231700-
NORTHWEST WISCONSIN

CITY           SKY/WX    TMP DP  RH WIND       PRES   REMARKS
SUPERIOR ARPT  CLOUDY    50  49  97 SW5       29.98S
ASHLAND        CLOUDY    49  47  93 S6        30.01S
HAYWARD        CLOUDY    49  47  93 S8        30.00F FOG
SIREN          FOG       50  50  99 SW3       30.00S VSB 1
CUMBERLAND     FOG       46  45  93 S5        30.01S VSB 1/2
RICE LAKE      FOG       48  47  95 SE6       30.03S VSB 3/4
CHETEK         CLOUDY    47  47  99 S3        30.03S FOG
LADYSMITH      DRIZZLE   46  45  95 S6        30.05S
EAU CLAIRE     NOT AVBL
MENOMONIE      NOT AVBL
NEW RICHMOND   CLOUDY    51  51 100 S6        30.01S FOG
OSCEOLA        CLOUDY    52  52 100 S5        30.03S FOG
$$

WIZ003>005-009-010-017-018-231700-
NORTH CENTRAL WISCONSIN

CITY           SKY/WX    TMP DP  RH WIND       PRES   REMARKS
MANITOWISH WTR RAIN      42  42  99 S8        30.03F
ARBOR VITAE    RAIN      44  42  93 S6        30.04F
WOODRUFF       RAIN      44  42  93 S6        30.04F
RHINELANDER    LGT RAIN  44  41  89 S6        30.06S
EAGLE RIVER    LGT RAIN  44  42  91 S3        30.05S
LAND O LAKES   CLOUDY    46  40  82 S7        30.05F
PHILLIPS       RAIN      43  42  97 S6        30.03S
TOMAHAWK       DRIZZLE   43  41  93 CALM      30.06S
MEDFORD        LGT RAIN  42  41  98 S6        30.06R
MERRILL        RAIN      43  42  95 CALM      30.07S
$$

WIZ029-030-035-036-043>047-231700-
CENTRAL WISCONSIN

CITY           SKY/WX    TMP DP  RH WIND       PRES   REMARKS
WAUSAU         LGT RAIN  44  41  89 S10       30.07S
MOSINEE        NOT AVBL
MARSHFIELD     LGT RAIN  45  42  89 S8        30.06F FOG
STEVENS POINT  RAIN      41  39  91 S6        30.10S
WAUPACA        CLOUDY    46  40  80 S5        30.13S HAZE
WAUTOMA        NOT AVBL
WISC RAPIDS    LGT RAIN  44  42  93 S7        30.10S FOG
CAMP DOUGLAS   NOT AVBL
$$

WIZ011>013-019>022-031-037>040-048>050-231700-
NORTHEAST WISCONSIN

CITY           SKY/WX    TMP DP  RH WIND       PRES   REMARKS
ANTIGO         DRIZZLE   38  38  97 S7        30.09R WCI  33
SHAWANO        CLOUDY    47  40  76 S6        30.12F
OCONTO         PTSUNNY   51  40  67 S9        30.12F
STURGEON BAY   MOSUNNY   54  43  66 S13       30.14F
GREEN BAY      CLOUDY    51  40  65 S10       30.13F
MANITOWOC      NOT AVBL
APPLETON       PTSUNNY   48  37  66 S10G20    30.13F
CLINTONVILLE   CLOUDY    45  37  76 S8        30.12S
OSHKOSH        CLOUDY    51  41  68 S17G23    30.12F
$$

WIZ032>034-041-042-053>061-231700-
SOUTHWEST WISCONSIN

CITY           SKY/WX    TMP DP  RH WIND       PRES   REMARKS
LA CROSSE      LGT RAIN  49  47  93 S8        30.06S FOG
SPARTA         RAIN      46  44  93 S5        30.08F
VIROQUA        CLOUDY    44  44 100 S7        30.07S
BOSCOBEL       LGT RAIN  48  44  86 CALM      30.10F FOG
PRAIRIE DU CHI LGT RAIN  47  44  90 E6        30.08F
PLATTEVILLE    CLOUDY    46  43  88 SE6       30.11F
$$

WIZ056-057-062-063-064-067-068-231700-
SOUTH CENTRAL WISCONSIN

CITY           SKY/WX    TMP DP  RH WIND       PRES   REMARKS
REEDSBURG      RAIN      44  41  90 S8        30.11R
BARABOO/DELLS  HVY RAIN  44  40  84 S9        30.11R
LONE ROCK      LGT RAIN  49  41  74 E8        30.11F
MINERAL POINT  HVY RAIN  45  41  87 SE6       30.11S
MADISON        CLOUDY    50  40  68 S12       30.12F
MIDDLETON      CLOUDY    49  38  64 S13       30.12F
WATERTOWN      PTSUNNY   48  41  77 S6        30.15S
MONROE         CLOUDY    48  39  71 S16G22    30.12F
JANESVILLE     SUNNY     54  39  58 S9        30.15F
$$

WIZ051-052-058>065-066-070>072-231700-
SOUTHEAST WISCONSIN

CITY           SKY/WX    TMP DP  RH WIND       PRES   REMARKS
MILWAUKEE      PTSUNNY   54  42  64 S8        30.17F
WAUKESHA       SUNNY     46  39  76 SW7       30.18F
MILWAUKEE/TIMM SUNNY     52  37  58 S8        30.17F
RACINE         MOSUNNY   55  41  59 SW10      30.19F
BURLINGTON     MOSUNNY   53  40  62 SW9       30.17F
KENOSHA        MOSUNNY   54  42  64 SW12G20   30.18F
FOND DU LAC    PTSUNNY   52  40  63 S12       30.13F
SHEBOYGAN      PTSUNNY   51  40  65 S8        30.15F
WEST BEND      PTSUNNY   48  39  71 S5        30.16F
JUNEAU         PTSUNNY   48  40  71 S14       30.16S
$$

LSZ147-162-231700-
LAKE SUPERIOR

STATION/POSITION TIME  TEMP    WIND        PRES    WAVE
                       AIR SEA DIR/SP/G            HT/PER
                 (UTC) (F)     (DEG/KT/KT) (MB)    (FT/S)
W MID LAKE BUOY  1450   48 46  200/ 12/ 14 1016.0F   2/ 4
DEVILS ISLAND    1500   48     180/  7/  9 1016.1S
PORT WING        1500   50     190/  5/  9 1015.6R
SAXON HARBOR     1500   51     200/  6/ 14 1015.9
$$

LMZ867-665-643>646-231700-
LAKE MICHIGAN

STATION/POSITION TIME  TEMP    WIND        PRES    WAVE
                       AIR SEA DIR/SP/G            HT/PER
                 (UTC) (F)     (DEG/KT/KT) (MB)    (FT/S)
CHAMBERS ISLAND  1500   51     170/ 10/ 15 1021.0F
N MID LAKE BUOY  1450   48 51  190/ 16/ 19 1021.9F   3/ 5
NORTHPORT PIER   1500   52     170/  7/ 12 1021.0F
SISTER BAY       1513          170/ 15/ 18   N/A
ALGOMA LAKESHORE 1526          220/ 17/ 20   N/A
KEWAUNEE LAKESHO 1500   48     180/ 13/ 15 1020.5F
SHEBOYGAN LAKESH 1500   48 50  180/ 15/ 16 1022.1F
PORT WASHINGTON  1500   50     180/  9/ 10 1022.4F
ATWATER BUOY     1500   49     190/ 12/ 14 1023.0F
MILWAUKEE LAKESH 1500   49     210/  8/ 10   N/A
S MID LAKE BUOY  1450   51 54  210/ 12/ 14 1023.4F   2/ 4
KENOSHA   LAKESH 1500   51     190/  8/ 11 1022.4F
$$

TC  - TEMPERATURE IN CELSIUS
VSB - VISIBILITY IN STATUTE MILES
WCI - WIND CHILL INDEX
HX  - HEAT INDEX




USA.gov is the U.S. government's official web portal to all federal, state and local government web resources and services.